Weather History for Columbus, OH

Change the Weather History Date:

Thursday, February 6, 2014

  Actual Average Record
Temperature  
Mean Temperature 16 °F 31 °F  
Max Temperature 24 °F 38 °F 62 °F (2008)
Min Temperature 7 °F 23 °F -11 °F (1977)
Degree Days  
Heating Degree Days 49 34  
Month to date heating degree days 216 207  
Since 1 July heating degree days 3513 3299  
Cooling Degree Days 0 0  
Month to date cooling degree days 0 0  
Year to date cooling degree days 0 0  
Moisture  
Dew Point 11 °F    
Average Humidity 75    
Maximum Humidity 84    
Minimum Humidity 65    
Precipitation  
Precipitation T in 0.08 in 1.41 in (1893)
Month to date precipitation 1.39 0.50  
Year to date precipitation 3.79 3.23  
Snow  
Snow T in 0.30 in 4.70 in (1972)
Month to date snowfall 10.6 1.5  
Since 1 July snowfall 45.7 16.8  
Snow Depth 6.00 in    
Sea Level Pressure  
Sea Level Pressure 30.40 in    
Wind  
Wind Speed 7 mph (West)    
Max Wind Speed 16 mph    
Max Gust Speed 21 mph    
Visibility 9 miles    
Events Snow    
T = Trace of Precipitation, MM = Missing Value Source: NWS Daily Summary

Daily Weather History Graph

Daily Weather History Graph

Search for Another Location

Airport:

Trip Planner

Search our weather history database for the weather conditions in past years. The results will help you decide how hot, cold, wet, or windy it might be!

Date:

Astronomy

Feb. 06, 2014 Rise Set
Actual Time 7:34 AM EST 5:56 PM EST
Civil Twilight 7:06 AM EST 6:25 PM EST
Nautical Twilight 6:34 AM EST 6:57 PM EST
Astronomical Twilight 6:02 AM EST 7:28 PM EST
Moon 11:28 AM EST (2/6) 12:49 AM EST (2/6)
Length of Visible Light 11h 18m
Length of Day
10h 21m
Waxing Crescent, 49% of the Moon is Illuminated
Feb 6
Waxing Crescent
Feb 6
First Quarter
Feb 14
Full
Feb 22
Last Quarter
Mar 1
New

Hourly Weather History & Observations

Time (EST) Temp. Windchill Dew Point Humidity Pressure Visibility Wind Dir Wind Speed Gust Speed Precip Events Conditions
12:51 AM 21.0 °F 10.6 °F 15.1 °F 78% 30.36 in 6.0 mi NNW 9.2 mph - 0.00 in Snow Light Snow
1:51 AM 19.0 °F 11.1 °F 14.0 °F 81% 30.37 in 6.0 mi NW 5.8 mph - 0.00 in Snow Light Snow
2:51 AM 19.0 °F 11.1 °F 12.9 °F 77% 30.38 in 10.0 mi NNW 5.8 mph - 0.00 in   Overcast
3:31 AM 15.8 °F 7.2 °F 10.4 °F 79% 30.35 in 10.0 mi WNW 5.8 mph - N/A   Scattered Clouds
3:51 AM 12.9 °F 2.6 °F 8.1 °F 81% 30.39 in 10.0 mi WNW 6.9 mph - N/A   Partly Cloudy
4:51 AM 14.0 °F 8.2 °F 8.1 °F 77% 30.39 in 10.0 mi North 3.5 mph - N/A   Clear
5:51 AM 12.9 °F - 7.0 °F 77% 30.40 in 10.0 mi Calm Calm - N/A   Clear
6:51 AM 10.9 °F - 7.0 °F 84% 30.42 in 10.0 mi Calm Calm - N/A   Partly Cloudy
7:51 AM 12.9 °F - 8.1 °F 81% 30.43 in 8.0 mi Calm Calm - 0.00 in Snow Light Snow
8:51 AM 15.1 °F - 10.9 °F 84% 30.44 in 5.0 mi Calm Calm - 0.00 in Snow Light Snow
9:51 AM 17.1 °F - 10.9 °F 77% 30.45 in 6.0 mi Calm Calm - 0.00 in Snow Light Snow
10:51 AM 19.9 °F - 10.9 °F 68% 30.46 in 6.0 mi Calm Calm - 0.00 in Snow Light Snow
11:51 AM 19.9 °F - 12.9 °F 74% 30.45 in 7.0 mi Calm Calm - 0.00 in Snow Light Snow
12:44 PM 21.2 °F 11.7 °F 14.0 °F 74% 30.39 in 9.0 mi SW 8.1 mph - 0.00 in   Overcast
12:51 PM 21.9 °F 11.7 °F 14.0 °F 72% 30.43 in 10.0 mi SW 9.2 mph - 0.00 in   Overcast
1:51 PM 23.0 °F 12.4 °F 14.0 °F 68% 30.39 in 7.0 mi SW 10.4 mph - 0.00 in   Overcast
2:51 PM 23.0 °F 13.9 °F 14.0 °F 68% 30.38 in 7.0 mi SW 8.1 mph - 0.00 in Snow Light Snow
3:51 PM 23.0 °F 13.1 °F 12.0 °F 63% 30.38 in 10.0 mi West 9.2 mph - 0.00 in   Overcast
4:51 PM 23.0 °F 13.1 °F 12.0 °F 63% 30.38 in 10.0 mi West 9.2 mph - N/A   Overcast
5:51 PM 21.9 °F 10.4 °F 12.0 °F 66% 30.37 in 10.0 mi West 11.5 mph - N/A   Overcast
6:51 PM 21.9 °F 9.8 °F 14.0 °F 72% 30.38 in 7.0 mi West 12.7 mph - 0.00 in Snow Light Snow
7:51 PM 19.0 °F 6.8 °F 12.0 °F 74% 30.40 in 10.0 mi West 11.5 mph - 0.00 in   Overcast
8:41 PM 17.6 °F 4.3 °F 8.6 °F 68% 30.36 in 10.0 mi West 12.7 mph - N/A   Overcast
8:51 PM 17.1 °F 3.0 °F 8.1 °F 68% 30.41 in 10.0 mi West 13.8 mph - N/A   Overcast
9:51 PM 14.0 °F 0.5 °F 6.1 °F 71% 30.43 in 10.0 mi WNW 11.5 mph - N/A   Overcast
10:51 PM 10.0 °F -5.2 °F 1.9 °F 70% 30.43 in 10.0 mi WNW 12.7 mph - N/A   Partly Cloudy
11:51 PM 7.0 °F -5.7 °F -2.0 °F 67% 30.42 in 10.0 mi WNW 8.1 mph - N/A   Partly Cloudy